Date,TemperatureHighF,TemperatureAvgF,TemperatureLowF,DewpointHighF,DewpointAvgF,DewpointLowF,HumidityHigh,HumidityAvg,HumidityLow,PressureMaxIn,PressureMinIn,WindSpeedMaxMPH,WindSpeedAvgMPH,GustSpeedMaxMPH,PrecipitationSumIn
2013-2-1,26,22,16,22,12,5,86,66,54,29.55,29.00,26,15,33,0.00
2013-2-2,23,18,12,17,9,4,89,68,50,29.69,29.52,15,6,18,0.00
2013-2-3,29,23,16,21,17,15,98,78,59,29.53,29.20,4,1,7,0.00
2013-2-4,27,21,16,22,12,2,98,67,40,29.37,29.17,32,13,34,0.00
2013-2-5,31,18,9,13,6,0,71,59,37,29.52,29.37,12,4,15,0.00
2013-2-6,34,23,16,25,16,-4,99,75,38,29.80,29.42,18,6,22,0.00
2013-2-7,25,16,11,5,0,-4,60,48,33,30.02,29.78,16,7,20,0.00
2013-2-8,17,15,12,15,10,-2,99,85,44,30.00,29.34,6,2,11,0.00
2013-2-9,19,15,10,19,12,2,99,88,68,29.69,29.26,16,8,22,0.00
2013-2-10,33,18,6,13,4,-6,85,57,37,29.87,29.68,19,5,25,0.00
2013-2-11,30,18,3,29,18,-1,99,96,78,29.83,29.10,7,1,9,0.00
2013-2-12,40,35,30,34,32,29,99,89,75,29.32,29.07,19,10,24,0.06
2013-2-13,37,31,22,30,26,20,99,80,62,29.34,29.23,14,6,19,0.00
2013-2-14,39,27,17,29,23,15,99,86,63,29.48,29.21,10,2,13,0.00
2013-2-15,49,31,17,37,26,16,99,83,56,29.47,29.36,9,2,13,0.00
2013-2-16,37,32,25,31,25,12,99,77,59,29.45,29.25,10,5,13,0.00
2013-2-17,25,17,12,16,11,4,99,76,57,29.25,28.84,35,16,42,0.00
2013-2-18,26,16,9,8,4,0,76,58,36,29.57,29.10,29,18,39,0.00
2013-2-19,38,28,15,35,16,-1,99,64,33,29.64,29.06,15,3,19,0.06
2013-2-20,34,29,21,34,25,17,99,85,70,29.21,28.98,22,13,28,0.07
2013-2-21,25,21,16,20,15,10,93,79,67,29.71,29.19,21,12,27,0.00
2013-2-22,38,28,15,28,22,14,99,80,51,29.90,29.71,11,3,17,0.00
2013-2-23,36,31,27,35,30,26,99,96,90,29.83,29.47,4,1,6,0.00
2013-2-24,34,32,29,34,31,28,99,99,99,29.47,29.26,0,0,1,0.02
2013-2-25,40,30,15,39,30,14,99,99,92,29.73,29.40,3,0,6,0.01
2013-2-26,40,34,31,38,34,30,99,97,86,29.84,29.70,6,1,8,0.31
2013-2-27,36,33,31,36,33,30,99,99,99,29.70,29.16,4,1,8,0.20
2013-2-28,44,35,31,42,34,30,99,98,85,29.16,29.03,3,0,4,0.25